{"data":{"norad_id":53671,"intl_designator":"2022-105Z","name":"STARLINK-4440","alt_names":[],"object_type":"PAYLOAD","status":"ACTIVE","operator":null,"country":"US","launch_date":"2022-08-31","launch_site_code":"AFWTR","launch_vehicle":null,"mission":null,"orbit_class":"UNKNOWN","rcs_meters":null,"size_class":null,"mass_kg":null,"dimensions":null,"purposes":["comms"],"wikipedia_slug":null,"has_3d_model":false,"image_url":null,"decayed_at":null,"tle_current":{"epoch":"2026-05-24T21:33:58.607136Z","epoch_age_seconds":93923,"freshness":"FRESH","line1":"1 53671U 22105Z   26144.89859499 -.00000064  00000+0 -33786-6 0  9994","line2":"2 53671  97.4524  24.8155 0002245  78.0206 282.1273 15.05652692204693","mean_motion":15.05652692,"eccentricity":0.0002245,"inclination_deg":97.4524,"raan_deg":24.8155,"arg_perigee_deg":78.0206,"mean_anomaly_deg":282.1273,"bstar":-3.3786e-7,"rev_number":20469,"period_min":95.63958591853,"perigee_km":547.94764145151,"apogee_km":551.05815176509,"semimajor_km":6927.6398966083,"source":"CELESTRAK","updated_at":"2026-05-25T13:38:17.488933Z"}}}